Regional Weather Roundup
Issued by NWS Albany, NY

Home | Current Version | Previous Version | Graphics & Text | Print | Product List | Glossary Off
Versions: 1 2 3 4 5 6 7 8 9 10 11 12 13 14 15 16 17 18 19 20 21 22 23 24 25 26 27 28 29 30 31 32 33 34 35 36 37 38 39 40 41 42 43 44 45 46 47 48 49 50

000
ASUS41 KALY 010210
RWRALY

NEW YORK STATE HOURLY WEATHER ROUNDUP
NATIONAL WEATHER SERVICE ALBANY NY
1000 PM EDT FRI JUL 31 2015

NOTE: "FAIR" INDICATES FEW OR NO CLOUDS BELOW 12,000 FEET WITH NO
SIGNIFICANT WEATHER AND/OR NO OBSTRUCTIONS TO VISIBILITY.

NYZ032-033-038>043-046>054-057>066-NYZ062>081-010300-
EAST


CITY           SKY/WX    TMP DP  RH WIND       PRES   REMARKS
ALBANY         PTCLDY    71  58  63 CALM      29.78S
GLENS FALLS    MOCLDY    73  58  59 SW5       29.77R
POUGHKEEPSIE   CLEAR     70  60  70 CALM      29.80R
NEWBURGH       CLEAR     72  61  68 CALM      29.84R
MONTGOMERY     CLEAR     67  61  81 S3        29.82R
WHITE PLAINS   CLEAR     72  61  68 CALM      29.83R
ISLIP          CLEAR     76  68  76 SW8       29.81R
NEW YORK CITY  CLEAR     85  52  32 W5        29.82R
CENTRAL PARK   CLEAR     81  52  36 CALM      29.85R
$$

NYZ005>009-017-018-044>046-055-056-010300-
CENTRAL


CITY           SKY/WX    TMP DP  RH WIND       PRES   REMARKS
FULTON         MOCLDY    70  65  84 S5        29.78R
SYRACUSE       MOCLDY    72  64  76 CALM      29.78R
ROME           CLEAR     64  62  93 SE3       29.80R
ELMIRA         PTCLDY    66  62  87 CALM      29.82R
BINGHAMTON     CLEAR     70  60  70 SW6       29.85R
MONTICELLO     CLOUDY    72  59  64 SW3       29.87S
$$

NYZ026>034-041>043-010300-
NORTH


CITY           SKY/WX    TMP DP  RH WIND       PRES   REMARKS
WATERTOWN      CLOUDY    65  62  90 NE5       29.77R
FORT DRUM      NOT AVBL
MASSENA        MOCLDY    74  58  57 SW15      29.71R
SARANAC LAKE   PTCLDY    60  55  83 CALM      29.78S
PLATTSBURGH    CLEAR     68  58  70 VRB3      29.72S
$$

NYZ001>004-010>016-019>021-010300-
WEST


CITY           SKY/WX    TMP DP  RH WIND       PRES   REMARKS
NIAGARA FALLS  PTCLDY    74  61  63 SW15G24   29.77S
BUFFALO        MOCLDY    74  60  61 W12       29.79R
DUNKIRK        MOCLDY    70  61  73 S8        29.81F
JAMESTOWN      CLOUDY    64  59  82 W6        29.88F
WELLSVILLE     MOCLDY    69  56  62 SW6       29.91R
ROCHESTER      MOCLDY    75  58  55 W9        29.78R
PENN YAN       PTCLDY    73  59  61 SW6       29.82R
$$

             KEY
       WCI = WIND CHILL INDEX
       VSB = VISIBILITY
       HX  = HEAT INDEX
$$



USA.gov is the U.S. government's official web portal to all federal, state and local government web resources and services.